GEFSMA_con_cape1000_078.txt.gz
Probability
84 84 71 68 68 68 77 71 77 84 81 81 81 74 68 71 74 74 55 71 90 97 100 97 97 100 100 100 100 100 100 100 100 100 100 100 97 100 97 94 94 87 87
65 52 42 39 42 39 45 52 55 55 58 55 55 55 58 58 55 61 58 52 81 97 97 97 100 97 100 97 97 100 100 100 100 100 100 100 97 97 100 97 94 87 84
45 42 29 26 23 29 29 29 35 35 39 39 42 42 45 48 42 55 55 52 58 68 87 94 97 100 90 90 90 100 100 100 100 100 97 100 97 97 94 94 94 87 81
26 16 16 13 13 13 13 16 16 19 23 23 26 19 26 26 29 29 39 39 52 48 61 84 90 90 84 84 90 94 97 94 97 100 97 97 94 90 87 84 87 87 58
16 10 10 6 3 0 0 0 0 0 0 0 3 6 10 13 19 19 23 26 29 29 39 45 77 84 84 84 90 87 90 94 97 97 100 97 94 87 81 77 77 74 55
10 6 6 3 0 0 0 0 0 0 0 0 0 0 0 0 3 3 6 10 13 13 16 23 45 55 74 77 84 84 84 87 94 100 100 100 94 87 68 61 61 61 45
3 3 0 0 0 0 0 0 0 0 0 0 0 0 0 0 0 0 0 0 0 6 10 13 16 29 45 48 61 68 81 81 87 90 100 100 100 90 65 48 35 32 23
0 0 0 0 0 0 0 0 0 0 0 0 0 0 0 0 0 0 0 0 0 0 0 0 13 19 29 39 26 48 65 77 77 81 94 97 94 90 61 58 26 16 16
0 0 0 0 0 0 0 0 0 0 0 0 0 0 0 0 0 0 0 0 0 0 0 3 6 3 16 26 26 13 58 61 77 94 90 90 81 68 58 55 45 26 13
0 0 0 0 0 0 0 0 0 0 0 0 0 0 0 0 0 0 0 0 0 0 0 0 3 3 13 19 16 10 16 29 65 84 84 87 87 61 48 55 68 55 19
0 0 0 0 0 0 0 0 0 0 0 0 0 0 0 0 0 0 0 0 0 0 0 0 0 3 6 13 16 10 6 10 23 48 65 77 81 81 74 74 74 77 61
0 0 0 0 0 0 0 0 0 0 0 0 0 0 0 0 0 0 0 0 0 0 0 0 0 0 3 10 6 6 6 0 0 13 32 45 71 74 84 87 84 81 77
0 0 0 0 0 0 0 0 0 0 0 0 0 0 0 0 0 0 0 0 0 0 0 0 0 0 0 0 10 3 3 0 0 0 0 10 26 29 35 55 74 87 84
0 0 0 0 0 0 0 0 0 0 0 0 0 0 0 0 0 0 0 0 0 0 0 0 0 0 0 0 3 0 3 0 0 0 0 0 6 6 6 10 13 23 32
0 0 0 0 0 0 0 0 0 0 0 0 0 0 0 0 0 0 0 0 0 0 0 0 0 0 0 0 0 0 6 0 0 0 0 0 0 0 0 0 0 3 3
0 0 0 0 0 0 0 0 0 0 0 0 0 0 0 0 0 0 0 0 0 0 0 0 0 0 0 0 0 0 0 0 0 0 0 0 0 0 0 0 0 0 0
0 0 0 0 0 0 0 0 0 0 0 0 0 0 0 0 0 0 0 0 0 0 0 0 0 0 0 0 0 0 0 0 0 0 0 0 0 0 0 0 0 0 0
0 0 0 0 0 0 0 0 0 0 0 0 0 0 0 0 0 0 0 0 0 0 0 0 0 0 0 0 0 0 0 0 0 0 0 0 0 0 0 0 0 0 0
0 0 0 0 0 0 0 0 0 0 0 0 0 0 0 0 0 0 0 0 0 0 0 0 0 0 0 0 0 0 0 0 0 0 0 0 0 0 0 0 0 0 0
0 0 0 0 0 0 0 0 0 0 0 0 0 0 0 0 0 0 0 0 0 0 0 0 0 0 0 0 0 0 0 0 0 0 0 0 0 0 0 0 0 0 0
0 0 0 0 0 0 0 0 0 0 0 0 0 0 0 0 0 0 0 0 0 0 0 0 0 0 0 0 0 0 0 0 0 0 0 0 0 0 0 0 0 0 0
0 0 0 0 0 0 0 0 0 0 0 0 0 0 0 0 0 0 0 0 0 0 0 0 0 0 0 0 0 0 0 0 0 0 0 0 0 0 0 0 0 0 0
0 0 0 0 0 0 0 0 0 0 0 0 0 0 0 0 0 0 0 0 0 0 0 0 0 0 0 0 0 0 0 0 0 0 0 0 0 0 0 0 0 0 0
0 0 0 0 0 0 0 0 0 0 0 0 0 0 0 0 0 0 0 0 0 0 0 0 0 0 0 0 0 0 0 0 0 0 0 0 0 0 0 0 0 0 0
0 0 0 0 0 0 0 0 0 0 0 0 0 0 0 0 0 0 0 0 0 0 0 0 0 0 0 0 0 0 0 0 0 0 0 0 0 0 0 0 0 0 0
0 0 0 0 0 0 0 0 0 0 0 0 0 0 0 0 0 0 0 0 0 0 0 0 0 0 0 0 0 0 0 0 0 0 0 0 0 0 0 0 0 0 0

GEFSMA_con_cape1000_084.txt.gz
Probability
84 87 94 94 87 87 87 84 87 90 90 94 87 84 84 71 65 58 65 94 94 94 90 90 97 100 100 100 100 100 97 97 100 100 100 100 97 97 97 100 100 97 90
84 84 81 81 77 77 77 74 77 81 84 84 87 77 74 77 87 81 61 77 90 94 90 84 90 97 97 97 100 100 100 100 100 100 100 100 100 100 97 100 100 97 87
81 81 61 65 65 58 71 71 71 61 68 61 68 74 81 87 68 74 74 68 71 87 94 90 90 90 97 97 97 100 100 100 100 100 100 100 100 100 100 100 97 90 87
55 68 52 45 45 52 45 45 42 42 42 45 55 68 74 77 77 71 68 68 71 61 74 90 87 90 97 97 90 97 97 97 97 100 100 100 100 97 94 97 94 90 74
35 42 42 35 32 26 26 23 26 32 29 29 29 42 39 52 61 55 48 45 55 58 55 68 84 81 81 90 87 87 90 94 94 97 97 100 100 94 90 84 84 77 61
32 23 19 19 13 16 16 13 10 23 29 26 10 3 13 16 35 42 52 45 45 42 48 48 61 71 81 90 97 90 87 90 87 77 87 90 97 94 74 61 61 61 48
19 19 10 13 16 6 10 10 10 6 6 13 13 13 6 3 6 16 29 32 26 35 42 52 61 61 68 65 74 90 77 81 77 77 81 84 84 87 74 48 45 42 32
19 16 13 10 16 16 10 10 13 6 3 6 6 3 6 6 13 6 13 19 23 35 32 26 48 71 55 55 23 48 77 68 65 65 71 74 74 74 71 58 35 19 19
13 16 10 10 13 13 6 10 10 6 6 6 6 3 3 3 0 10 6 13 26 29 16 16 29 48 55 58 58 10 65 61 65 71 68 68 61 48 45 48 35 19 10
13 10 10 10 6 6 6 6 3 3 3 3 3 6 3 3 3 0 3 3 3 13 26 13 13 29 35 48 71 35 32 35 58 65 61 68 61 35 32 55 61 48 19
13 10 10 6 6 6 6 6 6 6 3 3 3 3 3 6 3 3 3 0 3 10 16 16 23 29 35 35 71 35 6 10 16 42 58 65 55 52 52 58 71 77 58
13 0 3 10 6 6 6 6 6 6 6 3 3 3 3 3 3 0 0 0 3 6 6 13 6 19 16 26 16 3 0 0 0 6 26 42 48 55 45 65 74 84 87
3 3 0 3 3 0 3 3 6 3 3 3 3 0 0 0 0 0 0 0 0 0 3 6 3 16 10 23 39 0 0 0 0 0 0 3 13 26 29 48 61 77 87
0 0 0 0 0 0 0 0 0 0 0 0 0 0 0 0 0 0 0 0 0 0 0 0 3 10 16 29 16 0 0 0 0 0 0 0 0 3 13 13 26 32 48
0 0 0 0 0 0 0 0 0 0 0 0 0 0 3 3 0 0 0 0 0 0 0 0 6 3 13 16 0 0 26 0 0 0 0 0 0 0 0 0 0 3 3
0 0 0 0 0 0 0 0 0 0 0 0 0 0 0 0 0 0 0 0 0 0 0 0 3 3 0 0 0 10 6 0 0 0 0 0 0 0 0 0 0 0 0
0 0 0 0 0 0 0 0 0 0 0 0 0 0 0 0 0 0 0 0 0 0 0 0 3 3 0 0 3 13 6 13 10 0 0 0 0 0 0 0 0 0 0
0 0 0 0 0 0 0 0 0 0 0 0 0 0 0 0 0 0 0 0 0 0 0 0 0 0 0 0 3 3 0 0 16 0 0 0 0 0 0 0 0 0 0
0 0 0 0 0 0 0 0 0 0 0 0 0 0 0 0 0 0 0 0 0 0 0 0 0 0 0 0 3 3 3 3 3 0 0 0 0 0 0 0 0 0 0
0 0 0 0 0 0 0 0 0 0 0 0 0 0 0 0 0 0 0 0 0 0 0 0 0 0 0 0 0 0 0 3 0 0 0 0 0 0 0 0 0 0 0
0 0 0 0 0 0 0 0 0 0 0 0 0 0 0 0 0 0 0 0 0 0 0 0 0 0 0 0 0 0 0 0 0 0 0 0 0 0 0 0 0 0 0
0 0 0 0 0 0 0 0 0 0 0 0 0 0 0 0 0 0 0 0 0 0 0 0 0 0 0 0 0 0 0 0 0 0 0 0 0 3 0 0 0 0 0
0 0 0 0 0 0 0 0 0 0 0 0 0 0 0 0 0 0 0 0 0 0 0 0 0 0 0 0 0 0 0 0 0 3 0 0 0 0 0 0 0 0 0
0 0 0 0 0 0 0 0 0 0 0 0 0 0 0 0 0 0 0 0 0 0 0 0 0 0 0 0 0 0 0 0 0 0 0 0 0 0 0 0 0 0 0
0 0 0 0 0 0 0 0 0 0 0 0 0 0 0 0 0 0 0 0 0 0 0 0 0 0 0 0 0 0 0 0 0 0 0 0 0 0 0 0 0 0 0
0 0 0 0 0 0 0 0 0 0 0 0 0 0 0 0 0 0 0 0 0 0 0 0 0 0 0 0 0 0 0 0 0 0 0 0 0 0 0 0 0 0 0

GEFSMA_con_cape1000_090.txt.gz
Probability
77 77 71 81 84 87 94 100 94 87 81 77 74 77 77 68 65 71 81 90 90 97 100 100 100 100 100 100 100 100 100 100 100 100 100 100 100 100 100 97 97 90 94
87 84 87 87 90 87 87 74 68 74 71 74 74 77 71 68 71 77 71 87 94 94 97 100 100 100 100 100 100 100 100 100 100 100 100 100 100 100 100 100 100 94 90
81 77 71 74 77 68 77 81 61 58 52 48 58 68 65 74 77 74 68 74 81 81 94 100 100 100 100 97 97 100 100 100 100 100 100 97 100 100 100 100 100 94 87
55 58 61 61 71 61 58 55 55 42 39 39 35 52 52 61 65 74 68 71 68 65 81 97 100 100 100 97 97 97 100 100 100 100 100 97 97 97 97 97 97 94 87
42 42 55 58 42 42 48 23 32 35 35 35 32 35 42 48 55 45 65 71 71 71 68 77 97 100 100 100 94 94 97 97 94 90 90 94 90 94 90 87 90 87 61
39 39 48 39 32 35 39 29 26 35 32 35 6 10 26 26 39 35 42 39 52 55 55 65 77 77 97 100 100 94 94 97 94 90 90 90 90 84 77 74 71 61 52
26 32 26 32 32 29 32 26 23 16 23 26 16 16 16 16 16 19 32 32 32 42 52 61 65 65 61 81 90 97 90 90 87 94 94 94 90 81 65 55 48 39 39
29 13 45 29 39 35 26 23 19 10 10 6 10 3 3 0 13 3 19 19 13 26 42 26 48 55 52 42 29 74 94 90 90 90 94 90 81 65 58 52 32 13 16
29 35 29 29 35 26 19 23 16 13 6 3 6 3 0 0 0 0 10 13 26 29 23 23 39 48 45 45 52 29 77 84 90 94 87 90 74 58 45 48 39 13 10
35 39 32 39 35 29 29 16 6 6 3 3 3 3 0 0 0 0 0 3 3 16 16 6 13 19 32 35 32 23 35 45 74 87 84 84 84 42 32 42 58 39 13
42 39 39 35 35 29 23 10 10 10 6 6 6 3 0 0 0 0 0 0 0 3 6 23 29 23 19 26 39 10 10 10 19 61 77 81 77 61 48 48 61 74 58
35 29 23 35 26 19 16 10 6 6 6 6 6 3 3 3 3 0 0 0 0 0 0 6 16 29 23 13 6 6 3 0 0 3 26 52 58 55 52 48 58 71 74
16 10 6 6 3 3 3 3 3 0 6 3 6 3 0 3 0 0 0 0 0 0 0 6 10 16 6 13 13 0 3 0 0 0 0 10 26 35 29 32 48 65 74
3 0 0 0 3 3 3 3 3 3 0 0 0 0 0 0 0 0 0 0 0 0 0 0 10 13 6 10 10 0 3 0 0 0 0 0 6 6 13 10 6 19 29
0 0 0 0 0 0 0 0 3 3 0 0 0 0 0 0 0 0 0 3 0 0 0 0 0 6 6 10 0 3 6 0 0 0 0 0 0 0 0 0 0 0 3
0 0 0 0 0 0 0 0 0 0 0 0 0 0 0 0 3 0 3 0 0 0 0 0 0 0 0 0 0 0 3 0 0 0 0 0 0 0 0 0 0 0 0
0 0 0 0 0 0 0 0 0 0 0 0 0 0 0 0 0 0 0 0 0 0 0 0 0 0 0 0 0 0 0 0 0 0 0 0 0 0 0 0 0 0 0
3 3 3 0 0 0 0 0 0 0 0 0 0 0 0 0 0 0 0 0 0 0 0 0 0 3 0 0 3 0 0 0 0 0 0 0 0 0 0 0 0 0 0
3 3 3 0 0 0 0 0 0 0 0 0 0 0 0 0 0 0 0 0 0 0 0 0 0 0 0 0 3 0 0 0 0 0 0 0 0 0 0 0 0 0 0
3 3 3 0 0 0 0 0 0 0 0 0 0 0 0 0 0 0 0 0 0 0 0 0 0 0 0 0 0 0 0 0 0 0 0 0 0 0 0 0 0 0 0
3 3 3 0 0 0 0 0 0 0 0 0 0 0 0 0 0 0 0 0 0 0 0 0 0 0 0 0 0 0 0 0 0 0 0 0 0 0 0 0 0 0 0
6 3 3 0 0 0 0 0 0 0 0 0 0 0 0 0 0 0 0 0 0 0 0 0 0 0 0 0 0 0 0 0 0 0 0 0 0 0 0 0 0 0 0
10 6 3 0 0 0 0 0 0 0 0 0 0 0 0 0 0 0 0 0 0 0 0 0 0 0 0 0 0 0 0 0 0 0 0 0 0 0 0 0 0 0 0
13 16 13 3 6 0 0 0 0 0 0 0 0 0 0 0 0 0 0 0 0 0 0 0 0 0 0 0 0 0 0 0 0 0 0 0 0 0 0 0 0 0 0
19 13 10 10 6 6 0 0 0 0 0 0 0 0 0 0 0 0 0 0 0 0 0 0 0 0 0 0 0 0 0 0 0 0 0 0 0 0 0 0 0 0 0
16 10 6 13 6 6 0 0 0 0 0 0 0 0 0 0 0 0 0 0 0 0 0 0 0 0 0 0 0 0 0 0 0 0 0 0 0 0 0 0 0 0 0

GEFSMA_con_cape1000_096.txt.gz
Probability
39 32 29 23 26 32 23 23 26 23 26 19 23 23 19 26 29 16 16 65 77 81 87 87 87 100 100 100 100 100 100 100 100 97 97 94 94 90 87 87 81 87 77
29 23 19 23 16 13 10 10 6 6 3 10 16 10 13 13 13 13 6 48 81 77 84 90 94 94 100 100 100 100 100 100 100 100 100 100 100 100 94 81 84 84 77
13 10 3 3 3 6 6 10 10 3 3 3 0 0 3 6 6 6 6 13 19 65 84 90 94 97 94 100 100 100 100 100 100 100 100 97 97 94 97 94 84 77 65
13 13 10 10 6 3 3 3 3 3 3 0 0 0 0 0 0 0 3 6 6 19 61 84 94 97 94 94 100 100 100 100 100 100 100 94 97 90 94 90 87 74 35
16 10 6 6 3 6 3 3 3 3 3 0 0 0 0 0 0 0 0 0 0 6 6 35 87 84 90 90 100 100 100 100 100 100 100 97 94 87 84 77 71 68 26
19 10 6 6 6 6 3 3 3 3 3 3 3 0 0 0 0 0 0 0 0 3 3 3 19 45 77 90 97 100 100 100 100 100 100 97 97 90 74 61 65 42 23
13 6 3 3 6 6 3 3 3 3 3 0 0 0 0 0 0 0 0 0 0 0 6 6 6 3 13 58 74 94 100 97 100 100 100 97 94 90 71 42 26 29 10
6 6 6 6 6 6 3 3 3 0 0 0 0 0 0 0 0 0 0 0 0 0 0 0 3 6 3 3 6 55 84 97 97 97 94 94 94 90 71 55 23 6 6
6 6 3 3 3 3 0 0 0 0 0 0 0 0 0 0 0 0 0 0 0 0 0 0 0 3 3 0 0 6 52 61 81 84 90 87 84 74 65 58 35 10 6
3 3 0 0 3 0 0 0 0 0 0 0 0 0 0 0 0 0 0 0 0 0 0 0 0 0 0 0 0 0 13 26 42 68 84 94 74 55 52 55 61 35 13
0 0 0 0 0 0 0 0 0 0 0 0 0 0 0 0 0 0 0 0 0 0 0 0 0 0 0 0 0 0 0 0 6 35 61 71 81 81 61 68 71 68 42
0 0 0 0 0 0 0 0 0 0 0 0 0 0 0 0 0 0 0 0 0 0 0 0 0 0 0 0 0 0 0 0 0 0 10 19 52 65 65 65 65 68 71
0 0 0 0 0 0 0 0 0 0 0 0 0 0 0 0 0 0 0 0 0 0 0 0 0 0 0 0 0 0 0 0 0 0 0 3 6 16 29 45 58 61 68
0 0 0 0 0 0 0 0 0 0 0 0 0 0 0 0 0 0 0 0 0 0 0 0 0 0 0 0 0 0 0 0 0 0 0 0 3 3 6 13 19 23 29
0 0 0 0 0 0 0 0 0 0 0 0 0 0 0 0 0 0 0 0 0 0 0 0 0 0 0 0 0 0 0 0 0 0 0 0 0 0 0 0 0 0 0
0 0 0 0 0 0 0 0 0 0 0 0 0 0 0 0 0 0 0 0 0 0 0 0 0 0 0 0 0 0 0 0 0 0 0 0 0 0 0 0 0 0 0
0 0 0 0 0 0 0 0 0 0 0 0 0 0 0 0 0 0 0 0 0 0 0 0 0 0 0 0 0 0 0 0 0 0 0 0 0 0 0 0 0 0 0
0 0 0 0 0 0 0 0 0 0 0 0 0 0 0 0 0 0 0 0 0 0 0 0 0 0 0 0 0 0 0 0 0 0 0 0 0 0 0 0 0 0 0
0 0 0 0 0 0 0 0 0 0 0 0 0 0 0 0 0 0 0 0 0 0 0 0 0 0 0 0 0 0 0 0 0 0 0 0 0 0 0 0 0 0 0
0 0 0 0 0 0 0 0 0 0 0 0 0 0 0 0 0 0 0 0 0 0 0 0 0 0 0 0 0 0 0 0 0 0 0 0 0 0 0 0 0 0 0
0 0 0 0 0 0 0 0 0 0 0 0 0 0 0 0 0 0 0 0 0 0 0 0 0 0 0 0 0 0 0 0 0 0 0 0 0 0 0 0 0 0 0
0 0 0 0 0 0 0 0 0 0 0 0 0 0 0 0 0 0 0 0 0 0 0 0 0 0 0 0 0 0 0 0 0 0 0 0 0 0 0 0 0 0 0
0 0 0 0 0 0 0 0 0 0 0 0 0 0 0 0 0 0 0 0 0 0 0 0 0 0 0 0 0 0 0 0 0 0 0 0 0 0 0 0 0 0 0
0 0 0 0 0 0 0 0 0 0 0 0 0 0 0 0 0 0 0 0 0 0 0 0 0 0 0 0 0 0 0 0 0 0 0 0 0 0 0 0 0 0 0
0 0 0 0 0 0 0 0 0 0 0 0 0 0 0 0 0 0 0 0 0 0 0 0 0 0 0 0 0 0 0 0 0 0 0 0 0 0 0 0 0 0 0
0 0 0 0 0 0 0 0 0 0 0 0 0 0 0 0 0 0 0 0 0 0 0 0 0 0 0 0 0 0 0 0 0 0 0 0 0 0 0 0 0 0 0

GEFSMA_con_cape1000_102.txt.gz
Probability
29 26 23 19 29 32 26 19 26 29 35 29 32 19 23 13 16 16 23 52 81 87 97 94 94 97 100 100 100 100 100 100 100 94 97 90 90 84 81 81 84 87 77
26 16 23 23 16 13 16 16 16 13 19 19 13 13 16 13 16 23 13 19 52 74 84 87 90 97 100 100 100 100 100 100 100 100 97 97 97 94 87 84 81 84 74
10 6 10 10 10 10 10 6 6 6 3 3 0 3 3 6 13 16 10 19 29 45 71 81 90 90 87 90 100 97 97 100 100 100 100 100 97 97 94 90 84 87 71
6 3 6 3 3 6 6 6 3 3 3 3 0 0 0 0 3 3 3 6 10 13 32 61 87 84 87 84 87 90 100 100 100 100 100 94 94 90 90 90 87 81 61
10 6 6 6 3 3 3 3 3 3 3 0 3 3 0 0 0 0 0 0 3 6 6 13 52 77 61 68 81 94 97 100 100 100 100 94 94 94 94 87 84 77 55
10 6 3 3 3 3 3 0 3 0 3 3 3 3 0 0 0 0 0 0 0 0 3 3 6 19 45 71 84 77 77 81 94 94 97 100 97 97 90 77 68 61 48
10 3 3 3 3 3 0 0 0 3 3 3 3 0 0 0 0 0 0 0 0 0 0 0 3 6 10 23 42 68 65 65 84 84 94 97 97 97 84 71 55 45 35
6 6 3 3 3 0 0 0 0 3 0 0 0 0 0 0 0 0 0 0 0 0 0 0 0 3 6 19 13 13 52 65 68 71 77 90 90 84 81 74 55 39 23
6 3 3 3 0 0 0 0 0 0 0 0 0 0 0 0 0 0 0 0 0 0 0 0 0 3 3 10 13 10 26 42 61 58 68 71 65 61 65 61 58 35 16
3 3 3 3 0 0 0 0 0 0 0 0 0 0 0 0 0 0 0 0 0 0 0 0 0 0 0 3 0 0 0 10 32 39 52 55 65 48 45 52 61 65 35
3 3 3 0 0 0 0 0 0 0 0 0 0 0 0 0 0 0 0 0 0 0 0 0 0 0 0 0 0 0 0 0 0 10 29 45 48 52 61 65 71 74 68
0 0 0 0 0 0 0 0 0 0 0 0 0 0 0 0 0 0 0 0 0 0 0 0 0 0 0 0 0 0 0 0 0 0 0 6 26 42 45 61 65 68 68
0 0 0 0 0 0 0 0 0 0 0 0 0 0 0 0 0 0 0 0 0 0 0 0 0 0 0 0 0 0 0 0 0 0 0 0 0 6 23 32 42 52 61
0 0 0 0 0 0 0 0 0 0 0 0 0 0 0 0 0 0 0 0 0 0 0 0 0 0 0 0 0 0 0 0 0 0 0 0 0 0 0 0 13 6 13
0 0 0 0 0 0 0 0 0 0 0 0 0 0 0 0 0 0 0 0 0 0 0 0 0 0 0 0 0 0 0 0 0 0 0 0 0 0 0 0 0 0 0
0 0 0 0 0 0 0 0 0 0 0 0 0 0 0 0 0 0 0 0 0 0 0 0 0 0 0 0 0 0 0 0 0 0 0 0 0 0 0 0 0 0 0
0 0 0 0 0 0 0 0 0 0 0 0 0 0 0 0 0 0 0 0 0 0 0 0 0 0 0 0 0 0 0 0 0 0 0 0 0 0 0 0 0 0 0
0 0 0 0 0 0 0 0 0 0 0 0 0 0 0 0 0 0 0 0 0 0 0 0 0 0 0 0 0 0 0 0 0 0 0 0 0 0 0 0 0 0 0
0 0 0 0 0 0 0 0 0 0 0 0 0 0 0 0 0 0 0 0 0 0 0 0 0 0 0 0 0 0 0 0 0 0 0 0 0 0 0 0 0 0 0
3 3 3 0 0 0 0 0 0 0 0 0 0 0 0 0 0 0 0 0 0 0 0 0 0 0 0 0 0 0 0 0 0 0 0 0 0 0 0 0 0 0 0
0 0 3 3 0 0 0 0 0 0 0 0 0 0 0 0 0 0 0 0 0 0 0 0 0 0 0 0 0 0 0 0 0 0 0 0 0 0 0 0 0 0 0
0 0 0 0 0 0 0 0 0 0 0 0 0 0 0 0 0 0 0 0 0 0 0 0 0 0 0 0 0 0 0 0 0 0 0 0 0 0 0 0 0 0 0
0 0 0 0 0 0 0 0 0 0 0 0 0 0 0 0 0 0 0 0 0 0 0 0 0 0 0 0 0 0 0 0 0 0 0 0 0 0 0 0 0 0 0
0 0 0 0 0 0 0 0 0 0 0 0 0 0 0 0 0 0 0 0 0 0 0 0 0 0 0 0 0 0 0 0 0 0 0 0 0 0 0 0 0 0 0
0 0 0 0 0 0 0 0 0 0 0 0 0 0 0 0 0 0 0 0 0 0 0 0 0 0 0 0 0 0 0 0 0 0 0 0 0 0 0 0 0 0 0
0 0 0 0 0 0 0 0 0 0 0 0 0 0 0 0 0 0 0 0 0 0 0 0 0 0 0 0 0 0 0 0 0 0 0 0 0 0 0 0 0 0 0

GEFSMA_con_cape1000_108.txt.gz
Probability
74 68 84 81 65 74 65 68 45 45 42 39 39 29 35 45 35 48 61 77 77 84 94 100 94 94 97 97 100 100 100 100 100 97 100 94 90 84 81 77 77 77 71
81 71 68 71 55 58 45 52 45 48 48 52 39 39 39 35 52 55 39 55 68 68 71 87 94 94 97 94 94 97 97 100 100 97 100 100 100 94 87 90 87 87 81
71 58 45 45 42 39 52 42 39 42 42 42 48 39 35 42 35 42 52 45 52 68 65 68 81 87 84 81 87 94 100 100 100 100 100 100 100 100 100 100 97 94 90
52 52 39 35 39 39 42 48 48 35 35 32 35 29 26 39 32 39 35 45 39 35 58 58 68 71 71 74 71 84 94 100 100 100 100 97 100 97 97 97 97 94 84
48 42 39 42 39 23 26 23 26 29 26 29 19 32 29 29 32 26 26 26 39 45 42 48 45 58 65 68 81 71 77 84 84 94 94 97 94 94 94 94 97 94 87
42 39 32 39 19 19 26 23 23 29 32 29 10 6 16 13 19 19 23 16 16 26 29 26 35 45 52 61 68 77 65 68 77 84 87 94 94 90 90 87 81 87 74
35 39 19 45 35 19 16 16 13 13 13 16 6 6 6 6 6 10 16 16 10 13 26 32 32 39 39 39 39 61 71 68 65 68 74 90 87 87 77 74 71 68 58
39 29 29 29 29 29 26 19 23 10 10 3 3 6 0 3 0 0 6 6 6 10 6 10 16 32 29 42 23 32 55 48 61 71 65 77 74 81 77 68 61 45 48
32 23 29 23 19 10 6 6 16 10 0 0 3 0 0 0 0 0 0 3 6 6 3 6 6 6 10 19 29 10 29 42 35 52 61 68 68 61 61 61 65 55 35
23 19 19 19 16 6 10 3 3 3 6 0 0 0 0 6 0 3 3 3 3 3 3 0 0 6 6 6 13 6 10 10 10 29 55 58 55 48 45 58 65 58 48
23 19 16 16 19 10 6 10 6 3 3 0 0 0 0 0 0 0 0 0 3 0 3 3 3 6 6 3 6 0 3 3 3 10 16 23 42 42 45 52 61 65 71
16 10 10 16 13 10 10 13 10 6 3 3 0 0 0 0 0 0 0 0 0 0 0 0 0 3 3 6 0 0 0 0 0 0 3 6 13 26 39 48 48 55 58
13 13 6 16 10 16 16 13 13 6 6 6 3 0 0 0 0 0 0 0 0 0 0 0 0 3 3 3 3 0 0 0 0 0 0 0 3 10 10 26 26 35 39
10 13 10 13 13 13 10 13 10 10 6 6 3 3 0 0 0 0 0 0 0 0 0 0 0 0 3 3 3 0 0 0 0 0 0 0 0 0 0 3 3 10 13
10 10 10 13 13 10 10 10 10 10 10 6 6 0 0 0 0 0 0 0 0 0 0 0 0 0 0 3 0 0 0 0 0 0 0 0 0 0 0 0 0 0 0
13 13 10 10 10 10 10 10 10 10 10 6 6 3 0 0 0 0 0 0 0 0 0 0 0 0 0 0 0 0 0 0 0 0 0 0 0 0 0 0 0 0 0
13 13 13 10 10 10 10 10 10 6 10 6 3 3 3 0 0 0 0 0 0 0 0 0 0 0 0 0 0 0 0 0 0 0 0 0 0 0 0 0 0 0 0
19 13 10 10 10 10 10 10 10 6 6 3 3 3 3 3 0 0 0 0 0 0 0 0 0 0 0 0 0 0 0 0 0 0 0 0 0 0 0 0 0 0 0
19 10 10 10 10 6 6 6 6 6 6 3 3 3 3 3 3 0 0 0 0 0 0 0 0 0 0 0 0 0 0 0 0 0 0 0 0 0 0 0 0 0 0
19 10 10 13 10 10 6 6 6 6 3 3 3 3 3 3 3 3 0 0 0 0 0 0 0 0 0 0 0 0 0 0 0 0 0 0 0 0 0 0 0 0 0
13 10 13 13 10 10 10 3 3 3 3 3 3 3 3 3 3 0 0 0 0 0 0 0 0 0 0 0 0 0 0 0 0 0 0 0 0 0 0 0 0 0 0
10 10 6 3 6 3 0 0 0 0 0 3 3 3 6 3 0 0 0 0 0 0 0 0 0 0 0 0 3 0 0 0 0 0 0 0 0 0 0 0 0 0 0
6 13 10 10 3 0 0 0 0 0 0 0 3 13 0 0 0 0 0 0 0 0 0 0 0 0 0 0 3 3 3 0 0 0 0 0 0 0 0 0 0 0 0
10 16 13 10 13 0 0 0 0 0 0 0 0 0 6 6 0 0 0 0 0 0 0 0 0 0 0 0 0 3 3 3 0 0 0 0 0 0 0 0 0 0 0
19 16 16 13 13 10 0 0 0 0 0 0 0 0 3 3 0 0 0 0 0 0 0 0 0 0 0 0 0 0 0 0 0 0 6 0 0 0 0 0 0 0 0
13 10 0 0 0 0 0 0 0 0 0 0 6 6 0 0 0 0 0 0 0 0 0 0 0 0 0 0 0 0 0 0 0 0 3 3 0 0 0 0 0 0 0

GEFSMA_con_cape1000_114.txt.gz
Probability
90 87 84 87 87 81 90 90 90 77 65 42 42 26 29 45 45 55 77 94 94 100 100 100 97 94 90 94 97 94 97 100 97 94 94 97 90 90 84 77 77 77 68
87 87 87 90 84 84 87 84 74 74 65 55 42 48 48 42 48 48 71 84 90 94 100 97 100 97 94 90 90 97 97 100 97 94 94 100 97 90 84 84 90 87 74
77 81 81 77 77 84 71 71 65 61 61 52 45 48 48 48 45 55 55 68 68 87 94 97 100 94 94 94 90 94 94 97 97 90 87 94 94 94 94 87 90 94 84
65 74 71 71 71 65 65 71 61 58 52 45 48 55 55 48 48 52 45 55 61 42 68 87 90 87 81 81 74 71 77 87 87 87 90 90 94 94 97 94 94 94 90
52 52 65 61 61 55 61 42 65 52 52 52 29 42 39 42 42 32 35 45 48 52 39 58 74 77 68 74 71 71 71 77 81 81 81 84 87 94 94 97 94 94 90
52 48 52 45 39 52 58 55 58 48 45 55 13 26 42 32 35 35 32 29 39 39 42 35 55 52 65 74 71 68 71 65 71 77 77 77 84 81 81 81 81 87 77
48 52 39 42 52 61 55 48 48 45 48 55 35 29 35 42 35 42 29 23 26 26 19 39 39 42 42 48 55 65 68 61 58 61 68 71 81 81 74 71 65 55 61
52 35 52 58 58 61 48 45 45 55 39 42 19 10 10 16 32 10 16 29 26 26 19 13 26 26 32 39 13 42 48 52 52 61 55 45 58 58 65 61 61 45 35
52 55 45 48 55 52 58 45 45 39 35 23 26 13 6 6 13 16 10 10 13 19 13 23 19 26 26 32 35 10 35 42 42 39 58 58 45 29 29 39 52 52 19
45 42 39 39 42 45 52 39 45 35 19 29 29 26 3 3 3 0 10 10 6 10 10 3 3 13 16 16 23 13 13 10 13 32 42 45 45 26 23 26 35 35 32
48 29 26 35 39 39 45 32 29 19 32 23 19 13 3 10 10 3 0 3 6 6 6 16 6 10 10 10 13 6 6 3 3 10 16 19 23 29 29 29 32 39 42
52 32 29 29 26 32 29 26 19 10 16 10 6 6 3 6 0 0 0 0 0 3 3 6 6 3 6 6 0 0 3 0 0 3 6 3 0 6 6 13 16 26 29
45 52 23 32 29 29 23 19 16 16 13 16 6 6 6 3 3 0 0 0 0 3 0 3 6 6 0 3 3 0 0 0 0 0 0 0 0 0 0 3 6 6 16
35 45 35 29 26 26 13 19 16 13 13 10 10 6 13 3 0 0 0 0 0 0 0 3 6 6 0 3 3 0 0 0 0 0 0 0 0 0 0 0 0 0 3
32 29 29 19 19 16 13 16 13 13 13 13 10 10 6 3 3 0 0 0 0 0 0 0 0 0 0 0 0 0 3 0 0 0 0 0 0 0 0 0 0 0 0
35 32 23 16 19 19 16 16 19 10 10 13 13 13 13 6 6 0 0 0 0 0 0 0 0 0 0 0 0 0 0 0 0 0 0 0 0 0 0 0 0 0 0
39 32 23 23 23 23 16 16 10 13 10 10 10 10 13 10 6 3 0 0 0 0 0 0 0 0 0 0 0 0 0 0 0 0 0 0 0 0 0 0 0 0 0
45 42 32 29 23 19 19 16 13 10 10 10 10 10 10 10 26 3 3 3 3 0 0 0 0 0 3 6 0 0 0 0 0 0 0 0 0 0 0 0 0 0 0
52 42 39 32 26 23 23 19 13 10 13 19 23 19 19 19 23 10 13 3 3 3 0 0 0 0 0 0 0 0 0 0 0 0 0 0 0 0 0 0 0 0 0
48 42 42 39 35 26 23 19 23 23 26 26 26 26 26 26 26 23 10 10 3 3 3 3 0 0 0 0 0 0 0 0 0 0 0 0 0 0 0 0 0 0 0
39 42 39 42 42 23 10 23 19 13 23 23 23 23 19 6 3 3 3 3 6 3 3 3 0 0 0 0 0 0 0 0 0 0 0 0 0 0 0 0 0 0 0
45 42 42 39 39 6 0 0 6 13 23 23 19 16 19 6 3 0 0 0 0 3 3 0 0 0 0 0 0 0 0 0 0 0 0 0 0 0 0 0 0 0 0
52 52 45 35 32 26 0 0 0 6 10 10 13 16 6 0 0 0 0 0 0 0 0 0 0 0 0 0 0 0 0 0 0 0 0 0 0 0 0 0 0 0 0
58 58 52 39 42 29 0 0 0 0 0 3 3 10 16 10 0 0 3 0 0 0 0 0 0 0 0 0 0 0 0 0 0 0 0 0 0 0 0 0 0 0 0
61 52 55 55 45 29 3 0 0 0 0 0 0 0 3 3 3 0 0 0 0 0 0 0 0 0 0 0 0 0 0 0 0 0 0 0 0 0 0 0 0 0 0
65 45 45 45 39 39 13 0 0 0 0 0 0 3 0 0 0 0 0 0 0 0 0 0 0 0 0 0 0 0 0 0 0 0 0 0 0 0 0 0 0 0 0

GEFSMA_con_cape1000_120.txt.gz
Probability
29 19 16 16 19 13 10 10 6 6 0 0 0 0 0 3 3 6 26 84 97 97 100 97 97 97 97 97 97 97 97 97 94 94 97 94 94 81 74 71 61 52 58
16 13 10 6 10 10 6 3 0 0 0 0 0 0 3 3 6 6 13 48 94 97 100 100 100 100 97 97 97 97 100 100 100 97 97 97 94 94 87 81 74 71 58
16 10 6 10 19 3 0 6 6 3 6 0 0 3 0 0 6 6 10 16 39 94 97 100 100 100 100 100 97 100 100 100 97 100 100 100 97 97 94 94 87 77 65
10 13 10 10 6 6 6 3 6 6 3 3 3 0 3 0 0 3 6 10 13 26 68 87 94 94 100 97 94 97 97 100 94 94 97 97 94 90 81 87 87 81 55
19 10 10 6 6 6 6 3 3 3 0 0 3 3 3 3 3 3 0 6 6 16 23 48 81 81 87 84 77 74 81 87 84 84 71 77 84 81 71 77 77 77 52
16 10 10 6 6 6 3 0 0 0 0 0 3 0 0 0 0 0 3 3 6 6 10 16 29 52 77 81 87 81 77 74 77 77 68 71 77 74 65 61 58 71 45
23 10 6 6 6 6 3 0 0 0 0 0 0 0 0 0 0 0 0 0 3 6 6 3 6 16 16 48 65 74 68 48 58 58 68 71 71 74 48 45 52 48 48
19 10 6 6 6 3 0 0 0 0 0 0 0 0 0 0 0 0 0 0 0 0 3 3 3 0 0 3 13 35 65 48 48 48 45 48 45 52 45 32 29 26 29
16 10 6 6 3 3 3 0 0 0 0 0 0 0 0 0 0 0 0 0 0 0 0 3 0 0 0 0 0 0 32 39 45 26 48 58 29 32 23 23 23 23 26
13 6 6 6 3 3 3 3 0 0 0 0 0 0 0 0 0 0 0 0 0 0 0 0 0 0 0 0 0 0 10 10 23 23 29 39 26 16 19 29 23 19 19
13 10 6 6 3 3 3 3 0 0 0 0 0 0 0 0 0 0 0 0 0 0 0 0 0 0 0 0 0 0 3 6 3 10 16 19 23 16 10 16 26 29 23
10 10 6 6 3 3 3 0 0 0 0 0 0 0 0 0 0 0 0 0 0 0 0 0 0 0 0 0 0 0 0 0 0 0 0 6 10 10 13 13 6 10 6
10 10 10 6 3 3 3 0 0 0 0 0 0 0 0 0 0 0 0 0 0 0 0 0 0 0 0 0 0 0 0 0 0 0 0 0 0 0 0 0 0 0 3
6 10 6 6 3 3 3 0 0 0 0 0 0 0 0 0 0 0 0 0 0 0 0 0 0 0 0 0 0 0 0 0 0 0 0 0 0 0 0 0 0 0 0
6 6 6 6 3 3 3 3 3 0 0 0 0 0 0 0 0 0 0 0 0 0 0 0 0 0 0 0 0 0 0 0 0 0 0 0 0 0 0 0 0 0 0
6 6 6 3 3 3 3 3 3 3 3 3 3 3 3 3 0 0 0 0 0 0 0 0 0 0 0 0 0 0 0 0 0 0 0 0 0 0 0 0 0 0 0
3 6 6 3 3 3 3 3 3 3 3 3 3 3 3 3 0 0 0 0 0 0 0 0 0 0 0 0 0 0 0 0 0 0 0 0 0 0 0 0 0 0 0
3 3 6 6 6 3 3 3 3 3 3 3 0 0 3 3 0 0 0 0 0 0 0 0 0 0 0 0 0 0 0 0 0 0 0 0 0 0 0 0 0 0 0
3 3 3 3 3 3 3 3 3 3 3 3 0 0 0 0 0 0 0 0 0 0 0 0 0 0 0 0 0 0 0 0 0 0 0 0 0 0 0 0 0 0 0
3 3 3 0 0 0 0 0 0 0 0 0 0 0 0 0 0 0 0 0 0 0 0 0 0 0 0 0 0 0 0 0 0 0 0 0 0 0 0 0 0 0 0
6 6 3 0 0 0 0 0 0 0 0 0 0 0 0 0 0 0 0 0 0 0 0 0 0 0 0 0 0 0 0 0 0 0 0 0 0 0 0 0 0 0 0
3 3 3 3 3 0 0 0 0 0 0 0 0 0 0 0 0 0 0 0 0 0 0 0 0 0 0 0 0 0 0 0 0 0 0 0 0 0 0 0 0 0 0
0 0 0 0 0 0 0 0 0 0 0 0 0 0 0 0 0 0 0 0 0 0 0 0 0 0 0 0 0 0 0 0 0 0 0 0 0 0 0 0 0 0 0
3 0 0 3 3 0 0 0 0 0 0 0 0 0 0 0 0 0 0 0 0 0 0 0 0 0 0 0 0 0 0 0 0 0 0 0 0 0 0 0 0 0 0
0 0 0 0 0 0 0 0 0 0 0 0 0 0 0 0 0 0 0 0 0 0 0 0 0 0 0 0 0 0 0 0 0 0 0 0 0 0 0 0 0 0 0
3 0 0 0 0 0 0 0 0 0 0 0 0 0 0 0 0 0 0 0 0 0 0 0 0 0 0 0 0 0 0 0 0 0 0 0 0 0 0 0 0 0 0

GEFSMA_con_cape1000_126.txt.gz
Probability
13 6 10 19 19 13 6 6 3 0 6 6 3 3 6 10 13 19 19 68 100 100 97 94 90 94 97 94 94 97 90 87 94 94 94 90 81 65 55 55 48 52 45
10 6 6 6 3 6 0 0 0 0 0 0 3 3 3 3 6 10 19 39 77 94 97 97 94 90 90 90 90 97 94 90 94 94 94 94 90 90 84 61 58 61 52
13 10 10 6 3 0 0 0 0 0 0 0 0 6 3 3 3 3 6 23 35 65 81 87 90 97 90 81 90 90 94 97 97 94 94 94 90 90 94 90 81 65 65
13 3 6 3 0 0 0 0 3 3 0 0 0 3 6 6 3 3 6 6 16 19 52 71 81 84 90 71 71 81 90 94 90 90 87 87 94 90 87 84 90 81 58
10 0 6 6 0 0 0 0 0 0 0 0 0 0 0 3 0 0 6 10 6 13 23 29 55 71 81 65 71 68 84 81 81 74 71 77 84 81 81 77 81 71 68
10 6 3 0 0 0 0 0 0 0 0 0 0 0 0 0 0 0 0 3 6 6 13 23 32 42 61 71 71 68 58 55 65 71 68 61 74 68 58 61 61 65 61
10 10 10 0 0 3 3 0 0 0 0 0 0 0 0 0 0 0 0 0 0 6 6 16 19 19 19 23 23 52 52 45 45 52 58 61 58 58 55 48 58 45 48
10 10 6 3 0 3 0 0 0 0 0 0 0 0 0 0 0 0 0 0 0 0 6 3 6 13 16 16 13 16 42 39 39 42 42 39 39 42 39 45 32 23 19
13 6 3 3 0 0 0 0 0 0 0 0 0 0 0 0 0 0 0 0 0 0 0 3 3 3 3 10 10 3 19 23 29 29 29 26 32 19 16 23 32 23 16
13 6 6 6 6 0 0 0 0 0 0 0 0 0 0 0 0 0 0 0 0 0 0 0 3 3 0 0 0 0 3 6 13 19 26 29 19 13 13 16 29 23 23
10 6 6 6 3 3 0 0 0 0 0 0 0 0 0 0 0 0 0 0 0 0 0 0 0 0 0 0 0 0 0 0 0 10 13 16 13 16 16 16 19 19 23
10 6 6 6 3 3 3 0 0 0 0 0 0 0 0 0 0 0 0 0 0 0 0 0 0 0 0 0 0 0 0 0 0 0 6 10 10 10 13 16 13 13 10
3 6 6 6 6 0 0 0 0 0 0 0 0 0 0 0 0 0 0 0 0 0 0 0 0 0 0 0 0 0 0 0 0 0 0 0 0 3 3 3 6 10 13
6 3 3 6 3 3 3 0 0 0 0 0 0 0 0 0 0 0 0 0 0 0 0 0 0 0 0 0 0 0 0 0 0 0 0 0 0 0 0 0 0 0 0
0 0 3 3 0 0 3 0 0 0 0 0 0 0 0 0 0 0 0 0 0 0 0 0 0 0 0 0 0 0 0 0 0 0 0 0 0 0 0 0 0 0 0
0 0 3 3 0 0 0 0 0 0 0 0 0 0 0 0 0 0 0 0 0 0 0 0 0 0 0 0 0 0 0 0 0 0 0 0 0 0 0 0 0 0 0
0 0 3 3 3 0 0 0 0 0 0 0 0 0 0 0 0 0 0 0 0 0 0 0 0 0 0 0 0 0 0 0 0 0 0 0 0 0 0 0 0 0 0
0 0 3 3 3 3 0 0 0 0 0 0 0 0 0 0 0 0 0 0 0 0 0 0 0 0 0 0 0 0 0 0 0 0 0 0 0 0 0 0 0 0 0
0 0 3 0 3 3 0 0 0 0 0 0 0 0 0 0 0 0 0 0 0 0 0 0 0 0 0 0 0 0 0 0 0 0 0 0 0 0 0 0 0 0 0
6 0 0 0 0 3 3 0 0 0 0 0 0 0 0 0 0 0 0 0 0 0 0 0 0 0 0 0 0 0 0 0 0 0 0 0 0 0 0 0 0 0 0
6 0 0 0 0 0 0 0 0 0 0 0 0 0 0 0 0 0 0 0 0 0 0 0 0 0 0 0 0 0 0 0 0 0 0 0 0 0 0 0 0 0 0
6 3 0 0 0 0 0 0 0 0 0 0 0 0 0 0 0 0 0 0 0 0 0 0 0 0 0 0 0 0 0 0 0 0 0 0 0 0 0 0 0 0 0
6 0 0 0 0 0 0 0 0 0 0 0 0 0 0 0 0 0 0 0 0 0 0 0 0 0 0 0 0 0 0 0 0 0 0 0 0 0 0 0 0 0 0
3 0 0 0 0 0 0 0 0 0 0 0 0 0 0 0 0 0 0 0 0 0 0 0 0 0 0 0 0 0 0 0 0 0 0 0 0 0 0 0 0 0 0
3 0 0 0 0 0 0 0 0 0 0 0 0 0 0 0 0 0 0 0 0 0 0 0 0 0 0 0 0 0 0 0 0 0 0 0 0 0 0 0 0 0 0
6 0 0 0 0 0 0 0 0 0 0 0 0 0 0 0 0 0 0 0 0 0 0 0 0 0 0 0 0 0 0 0 0 0 0 0 0 0 0 0 0 0 0

GEFSMA_con_cape1000_132.txt.gz
Probability
71 81 94 84 52 58 48 61 39 42 35 39 29 29 42 29 42 39 74 84 90 81 81 87 77 77 94 94 87 90 84 81 81 81 74 74 65 45 29 26 19 29 19
87 81 87 77 48 42 35 52 26 52 42 32 26 39 32 32 39 55 45 74 81 81 74 71 71 74 68 84 81 84 84 87 87 84 87 84 77 58 48 42 32 29 26
94 77 65 77 52 52 68 55 48 26 32 23 29 32 35 35 39 45 42 48 61 71 74 68 61 61 61 61 65 81 84 87 87 87 84 81 84 84 61 58 45 42 39
84 87 74 65 68 52 48 52 45 32 26 26 32 29 26 52 29 35 32 42 45 35 42 61 65 65 55 55 58 68 71 84 87 87 81 81 77 81 81 77 68 58 55
81 74 74 77 65 48 39 32 42 32 35 32 26 29 19 23 29 19 23 23 35 39 42 55 52 58 45 48 55 55 58 65 77 77 77 81 77 87 87 77 77 74 68
77 74 74 74 58 42 52 45 48 42 35 32 10 16 16 16 19 26 19 32 39 16 19 26 45 48 68 48 45 45 45 58 61 58 61 61 71 74 71 68 71 71 71
81 81 55 65 58 52 45 29 29 29 26 23 10 16 19 6 13 26 26 26 16 10 16 23 32 26 32 32 35 42 39 35 45 45 48 55 61 68 68 55 58 55 58
77 61 77 61 58 58 48 45 42 16 13 16 6 10 10 13 16 3 23 16 10 10 10 10 26 29 19 32 19 35 32 32 35 35 35 42 45 45 42 42 39 39 39
71 65 65 58 55 48 52 52 48 39 19 13 6 6 10 3 13 6 3 6 13 13 13 10 13 26 16 26 16 10 23 29 26 19 23 29 29 19 39 35 39 32 29
61 61 61 52 55 42 52 45 35 39 39 16 16 10 3 3 3 10 6 10 10 23 16 10 6 13 19 23 19 10 13 16 23 23 26 23 19 19 16 16 23 32 29
58 58 65 61 55 52 48 45 45 35 35 19 13 6 3 3 0 3 6 10 6 6 6 19 10 10 16 13 23 3 3 0 6 10 23 23 23 19 13 13 13 16 19
58 58 55 58 58 48 58 58 48 42 39 23 19 10 3 3 3 3 3 10 10 6 3 3 0 6 6 6 6 3 3 0 0 0 3 6 13 16 16 16 13 13 13
45 55 35 55 52 48 48 45 45 39 32 45 29 23 3 6 6 3 3 3 3 3 0 0 0 3 3 3 6 0 0 0 0 0 0 0 0 3 6 10 16 16 16
29 48 48 48 42 39 32 42 29 29 32 29 19 23 19 3 3 0 3 3 0 0 0 0 0 3 3 3 3 0 0 0 0 0 0 0 0 0 0 0 3 6 10
32 42 45 45 42 35 35 42 29 35 29 23 13 19 16 10 3 3 0 0 0 0 0 0 0 0 0 3 0 0 0 0 0 0 0 0 0 0 0 0 0 0 0
42 35 42 42 32 39 35 42 32 32 32 19 19 19 19 10 10 3 3 3 0 0 0 3 0 0 0 0 0 3 3 0 0 0 0 0 0 0 0 0 0 0 0
48 48 45 42 29 32 35 39 19 23 23 23 19 19 19 13 10 6 3 3 3 0 0 0 0 0 3 3 0 0 0 3 3 0 0 0 0 0 0 0 0 0 0
45 45 45 42 35 23 32 35 16 13 19 19 16 13 13 6 16 3 6 0 0 3 0 0 0 3 10 10 6 13 0 0 0 0 0 0 0 0 0 0 0 0 0
58 42 39 42 39 32 32 29 19 16 16 16 13 13 13 13 19 16 19 3 10 0 10 0 0 3 3 0 3 3 0 6 0 0 0 0 0 0 0 0 0 0 0
55 45 35 42 35 32 32 32 23 23 16 16 13 13 13 13 13 19 19 19 13 10 6 3 0 0 0 0 3 3 0 0 0 0 0 0 0 0 0 0 0 0 0
35 48 42 42 45 32 10 19 19 10 19 13 13 13 10 6 3 3 0 13 10 6 3 3 3 0 0 3 6 6 3 3 0 0 0 0 0 0 0 0 0 0 0
48 48 42 39 39 13 3 0 6 10 10 10 6 6 10 3 0 0 0 0 0 0 0 0 0 0 0 0 6 0 3 0 0 0 13 3 0 0 0 0 0 0 0
48 48 48 42 39 23 3 0 0 3 10 10 16 19 3 3 0 0 0 0 0 0 0 0 0 0 3 3 3 3 6 0 0 6 10 0 3 3 0 0 0 0 0
48 45 45 45 39 13 3 0 0 0 6 10 10 6 6 3 3 3 3 3 3 0 0 0 0 0 3 3 6 3 6 6 6 10 10 0 0 0 0 0 0 0 0
52 52 42 35 29 16 3 0 0 3 0 0 0 3 3 3 0 0 0 0 3 0 0 0 0 0 0 0 0 0 0 3 3 3 6 6 0 0 0 0 0 0 0
39 39 32 32 32 32 3 0 0 0 0 3 3 3 0 0 0 0 0 0 0 0 0 0 0 0 0 0 0 0 0 0 0 0 0 0 0 0 0 0 0 0 0

GEFSMA_con_cape1000_138.txt.gz
Probability
97 97 97 97 100 97 90 90 94 77 77 74 71 48 35 48 48 39 55 94 100 94 90 87 81 84 84 87 87 77 74 65 71 68 58 42 35 23 26 23 13 10 13
97 97 97 97 90 94 97 94 81 81 81 81 68 65 55 52 74 68 48 84 94 90 90 87 74 81 81 81 77 84 81 68 74 77 71 61 52 48 32 35 35 23 23
97 97 97 87 87 87 84 81 77 68 74 65 58 68 65 65 61 68 55 52 74 84 84 84 77 74 68 65 61 74 87 84 77 77 81 81 77 61 55 55 52 45 35
87 84 87 87 87 87 90 90 81 77 68 65 68 61 52 55 42 48 39 61 45 32 68 77 74 74 68 61 58 65 74 84 77 77 77 81 84 87 68 61 61 61 45
81 81 87 87 77 84 84 61 84 71 61 55 55 52 52 55 42 39 39 35 35 35 29 68 84 71 65 65 65 71 71 77 81 81 84 77 68 77 71 71 68 65 55
74 77 77 84 77 81 77 74 74 68 58 58 16 26 48 45 52 35 29 26 35 29 32 16 39 48 68 68 68 58 65 68 74 74 74 81 81 77 71 68 58 58 58
74 77 77 84 81 84 74 68 68 61 58 58 39 35 42 35 39 42 35 26 19 26 26 35 26 26 26 68 61 65 58 58 58 65 68 61 58 58 58 55 61 48 48
74 68 74 84 77 77 68 58 71 61 52 48 48 42 39 32 39 3 32 45 26 35 32 23 26 52 26 13 10 48 55 42 39 42 45 52 48 55 55 55 48 32 35
65 71 74 68 77 77 74 65 65 52 52 52 52 48 32 19 19 23 13 19 23 32 29 19 29 42 19 19 16 10 48 35 35 35 42 42 42 39 39 39 39 32 32
68 71 71 71 74 71 84 61 65 58 48 55 55 45 42 48 23 16 19 26 35 35 19 10 10 32 19 26 26 16 29 29 32 32 42 42 39 29 26 19 26 29 32
65 68 74 77 71 81 71 65 68 61 52 52 55 42 35 42 26 16 13 16 26 29 26 26 19 23 19 16 29 13 23 19 16 19 26 23 29 32 26 19 19 19 23
77 61 68 74 77 77 77 68 61 58 58 58 55 48 45 29 23 23 16 19 23 35 35 39 35 29 26 23 13 16 10 3 3 10 13 23 26 26 23 23 19 19 19
77 84 65 77 71 74 77 68 65 61 48 48 52 52 45 29 35 26 23 19 23 29 32 26 26 29 13 23 19 10 10 0 0 0 0 0 10 13 16 19 16 19 19
74 84 77 74 65 58 45 65 58 58 55 48 42 52 58 39 35 26 16 16 6 10 16 10 19 23 16 29 13 3 3 0 0 0 0 0 0 0 0 0 6 3 10
58 68 71 65 65 55 52 65 55 52 48 55 48 48 42 42 45 26 23 26 6 3 6 19 16 16 16 10 0 0 6 0 0 0 0 0 0 0 0 0 0 0 0
68 61 68 65 61 58 55 48 55 52 48 52 48 55 48 35 29 32 23 13 13 13 10 6 16 13 6 0 0 3 10 3 0 0 0 0 0 0 0 0 0 0 0
68 61 65 58 58 52 45 48 48 52 42 42 42 35 39 32 39 26 16 19 16 16 10 13 13 29 23 13 0 6 13 6 0 0 0 0 0 0 0 0 0 0 0
58 65 61 61 55 45 48 42 29 29 35 32 32 29 29 16 29 32 23 13 23 29 10 13 19 29 23 23 19 19 3 0 3 0 0 0 0 0 0 0 0 0 0
58 58 58 55 48 42 42 39 35 35 23 23 32 26 26 19 26 23 32 19 23 0 13 6 10 26 26 16 16 13 6 6 0 0 0 0 0 0 0 0 0 0 0
55 52 52 55 52 48 45 39 39 32 23 26 29 29 16 16 23 29 16 29 23 23 23 6 6 6 10 10 16 13 6 6 0 0 0 0 0 0 0 0 0 0 0
52 52 48 52 48 45 26 35 35 26 29 26 23 29 13 10 6 6 3 3 3 16 6 3 0 0 0 6 3 3 0 3 0 0 0 0 0 0 0 0 0 0 0
48 52 52 52 42 26 6 6 19 23 29 23 26 19 16 6 3 0 0 0 0 3 10 3 3 0 0 0 3 0 0 0 0 0 0 0 0 0 0 0 0 0 0
48 48 48 42 39 29 6 0 0 13 19 32 29 35 6 3 0 3 0 0 0 0 0 0 0 0 0 0 0 0 0 0 0 0 0 0 0 0 0 0 0 0 0
58 58 55 45 45 35 10 0 0 0 10 23 35 32 29 16 3 3 3 0 0 0 0 0 0 0 0 3 3 0 0 0 0 0 0 0 0 0 0 0 0 0 0
61 58 52 48 45 32 13 0 0 3 6 10 13 16 19 19 6 0 0 0 0 0 0 0 0 0 0 0 0 0 0 0 0 0 0 0 0 0 0 0 0 0 0
61 55 55 52 52 42 10 0 0 3 6 10 10 13 6 3 3 0 0 0 0 3 0 0 0 0 0 0 0 0 0 0 0 0 0 0 0 0 0 0 0 0 0